Location: *
(33.3200°N, 8.3381°W)
Time: 19:04:20
(UTC+00:00)

Cosmos 1140 Rocket - Pass Details

Date: 09 April 2020
Orbit: 745 x 767 km, 74.1° (Epoch: 27 May)

Event Time Altitude Azimuth Distance (km) Brightness Sun altitude
Rises 19:59:54 0° 194° (SSW) 3,204 6.7 -13.0°
Reaches altitude 10° 20:02:15 10° 193° (SSW) 2,279 5.9 -13.4°
Maximum altitude 20:07:26 85° 107° (ESE) 762 3.4 -14.4°
Drops below altitude 10° 20:12:36 10° 18° (NNE) 2,278 6.0 -15.5°
Sets 20:14:58 0° 18° (NNE) 3,202 6.8 -15.9°
